AB9BZ Weather Reports


time (UTC)temp
C
wind
direction
speed
KPH
gust
KPH
rain 1hr
cm
rain 24hr
cm
rain mn
cm
humidity
%
barometer
mb
20260509145015 19 64 4.8 6.4 0.00 0.00 0.00 68 984.7
20260509144023 18 112 4.8 9.7 0.00 0.00 0.00 70 984.5
20260509143013 18 131 6.4 8.0 0.00 0.00 0.00 71 984.4
20260509142020 18 85 3.2 6.4 0.00 0.00 0.00 71 984.4
20260509141028 17 107 6.4 11.3 0.00 0.00 0.00 72 984.6
20260509140018 17 60 4.8 8.0 0.00 0.00 0.00 74 984.5
20260509135027 17 94 4.8 4.8 0.00 0.00 0.00 73 984.4
20260509134034 -17 315 6.4 6.4 0.00 0.00 0.00 984.5
20260509133024 -17 61 4.8 8.0 0.00 0.00 0.00 984.7
20260509132013 17 102 4.8 9.7 0.00 0.00 0.00 76 984.5
20260509131103 16 115 4.8 8.0 0.00 0.00 0.00 80 984.4
20260509130029 15 169 4.8 8.0 0.00 0.00 0.00 84 984.5
20260509125018 14 126 4.8 8.0 0.00 0.00 0.00 87 984.6
20260509124026 13 181 3.2 8.0 0.00 0.00 0.00 90 984.5
20260509123111 13 140 4.8 9.7 0.00 0.00 0.00 92 984.3
20260509122042 12 354 3.2 4.8 0.00 0.00 0.00 96 984.5
20260509121301 -17 0.0 0.0 0.00 0.00 0.00 984.5
20260509120021 11 1.6 4.8 0.00 0.00 0.00 99 984.5
20260509115448 -17 89 4.8 4.8 0.00 0.00 0.00 986.8
20260509114234 11 161 4.8 6.4 0.00 0.00 0.00 99 984.3
20260509113237 -17 180 8.0 8.0 0.00 0.00 0.00 984.5
20260509074044 11 136 3.2 6.4 0.00 0.00 0.00 94 984.7
20260509073033 11 132 3.2 6.4 0.00 0.00 0.00 94 984.9
20260509072103 11 0.0 0.0 0.00 0.00 0.00 94 985.2
20260509071111 11 136 1.6 6.4 0.00 0.00 0.00 93 985.2
20260509070021 11 182 1.6 6.4 0.00 0.00 0.00 93 985.3
20260509065029 11 123 1.6 6.4 0.00 0.00 0.00 93 985.5
20260509064036 12 134 1.6 6.4 0.00 0.00 0.00 93 985.6
20260509063141 12 135 1.6 3.2 0.00 0.00 0.00 93 985.5
20260509062016 12 229 4.8 6.4 0.00 0.00 0.00 92 985.7
20260509061023 12 152 3.2 4.8 0.00 0.00 0.00 92 985.8
20260509060014 12 81 3.2 4.8 0.00 0.00 0.00 92 986.0
20260509055003 12 91 3.2 4.8 0.00 0.00 0.00 92 986.0
20260509054125 12 94 4.8 8.0 0.00 0.00 0.00 91 985.9
20260509052959 12 133 3.2 4.8 0.00 0.00 0.00 91 986.0
20260509052009 12 145 3.2 6.4 0.00 0.00 0.00 90 985.8
20260509050957 13 111 3.2 6.4 0.00 0.00 0.00 89 985.9
20260509050006 13 177 4.8 6.4 0.00 0.00 0.00 88 985.8
20260509044954 13 3.2 3.2 0.00 0.00 0.00 88 985.9
20260509044021 13 122 4.8 8.0 0.00 0.00 0.00 86 986.1
20260509043030 13 105 3.2 9.7 0.00 0.00 0.00 85 985.9
20260509042020 13 117 3.2 6.4 0.00 0.00 0.00 84 986.0
20260509041009 13 148 3.2 4.8 0.00 0.00 0.00 83 986.2
20260509035958 13 168 4.8 8.0 0.00 0.00 0.00 81 986.2
20260509035047 13 168 4.8 9.7 0.00 0.00 0.00 80 986.2
20260509033955 14 121 4.8 6.4 0.00 0.00 0.00 79 986.4
20260509033003 14 158 4.8 8.0 0.00 0.00 0.00 79 986.3
20260509032011 14 184 1.6 4.8 0.00 0.00 0.00 79 986.3
20260509031001 14 125 3.2 4.8 0.00 0.00 0.00 80 986.3
20260509030010 14 154 4.8 9.7 0.00 0.00 0.00 80 986.3
20260509024958 13 151 3.2 6.4 0.00 0.00 0.00 80 986.4
20260509024006 12 148 3.2 4.8 0.00 0.00 0.00 79 986.5
20260509022955 12 156 1.6 3.2 0.00 0.00 0.00 75 986.5
20260509022004 12 0.0 0.0 0.00 0.00 0.00 74 986.6
20260509021011 12 0.0 0.0 0.00 0.00 0.00 73 986.4
20260509020001 12 0.0 0.0 0.00 0.00 0.00 71 986.4
20260509015009 13 0.0 0.0 0.00 0.00 0.00 70 986.3
20260509014018 13 0.0 0.0 0.00 0.00 0.00 69 986.2
20260509013006 13 0.0 0.0 0.00 0.00 0.00 68 986.2
20260509011956 14 129 1.6 4.8 0.00 0.00 0.00 67 986.2
20260509011044 14 131 3.2 6.4 0.00 0.00 0.00 67 986.2
20260509010012 14 148 1.6 3.2 0.00 0.00 0.00 67 986.2
20260509005003 15 99 1.6 3.2 0.00 0.00 0.00 66 986.3
20260509004030 15 113 1.6 4.8 0.00 0.00 0.00 66 986.3
20260509002959 15 164 3.2 6.4 0.00 0.00 0.00 66 986.3
20260509002028 16 129 3.2 4.8 0.00 0.00 0.00 65 986.3
20260509001015 16 116 3.2 4.8 0.00 0.00 0.00 65 986.4
20260509000005 16 141 3.2 4.8 0.00 0.00 0.00 65 986.4
20260508235012 16 119 3.2 6.4 0.00 0.00 0.00 64 986.5
20260508234003 16 136 4.8 4.8 0.00 0.00 0.00 64 986.4
20260508233010 17 86 3.2 8.0 0.00 0.00 0.00 63 986.4
20260508231959 17 108 4.8 9.7 0.00 0.00 0.00 64 986.4
20260508231008 17 134 3.2 6.4 0.00 0.00 0.00 64 986.5
20260508230015 17 154 3.2 6.4 0.00 0.00 0.00 65 986.6
20260508225004 17 61 4.8 6.4 0.00 0.00 0.00 64 986.7
20260508224012 17 86 3.2 9.7 0.00 0.00 0.00 65 986.7
20260508223023 17 57 4.8 9.7 0.00 0.00 0.00 65 986.6
20260508222010 17 49 6.4 9.7 0.00 0.05 0.00 65 986.6
20260508221038 17 33 3.2 6.4 0.00 0.13 0.00 66 986.7
20260508220008 18 66 4.8 8.0 0.00 0.25 0.00 64 986.8
20260508215036 18 47 8.0 11.3 0.00 0.25 0.00 62 986.8
20260508214005 19 35 6.4 11.3 0.00 0.25 0.00 60 986.6
20260508213033 19 102 4.8 9.7 0.00 0.25 0.00 60 986.6
20260508212003 20 145 4.8 8.0 0.00 0.25 0.00 60 986.7
20260508211010 20 117 4.8 6.4 0.00 0.25 0.00 60 986.8
20260508210019 20 107 6.4 11.3 0.00 0.25 0.00 59 986.8
20260508205007 20 40 6.4 11.3 0.00 0.25 0.00 58 986.8
20260508204037 20 79 6.4 11.3 0.00 0.25 0.00 59 987.1
20260508203004 20 144 6.4 11.3 0.00 0.25 0.00 59 987.2
20260508202013 21 163 4.8 8.0 0.00 0.25 0.00 55 987.5
20260508201021 20 56 4.8 9.7 0.00 0.25 0.00 57 987.5
20260508200010 20 116 4.8 8.0 0.00 0.25 0.00 56 987.7
20260508195057 20 173 6.4 9.7 0.00 0.25 0.00 57 987.8
20260508194008 19 88 6.4 8.0 0.00 0.25 0.00 59 988.0
20260508193015 19 49 4.8 9.7 0.00 0.25 0.00 60 988.0
20260508192004 20 75 6.4 8.0 0.00 0.25 0.00 57 988.2
20260508191012 20 38 4.8 11.3 0.00 0.25 0.00 57 988.3
20260508190021 20 38 8.0 11.3 0.00 0.25 0.00 56 988.4
20260508185010 20 87 6.4 8.0 0.00 0.25 0.00 56 988.5
20260508184038 20 64 4.8 9.7 0.00 0.25 0.00 56 988.6
20260508183007 20 135 4.8 8.0 0.00 0.25 0.00 56 988.7
20260508182035 22 133 6.4 8.0 0.00 0.25 0.00 47 988.7
20260508181023 20 120 1.6 4.8 0.00 0.25 0.00 52 988.9
20260508180013 20 143 4.8 9.7 0.00 0.25 0.00 53 989.0
20260508175021 20 123 4.8 8.0 0.00 0.25 0.00 54 989.2
20260508174010 20 151 6.4 9.7 0.00 0.25 0.00 55 989.4
20260508173019 20 151 4.8 8.0 0.00 0.25 0.00 56 989.6
20260508172008 21 154 3.2 4.8 0.00 0.25 0.00 55 989.7
20260508171036 20 116 3.2 6.4 0.00 0.25 0.00 57 989.9
20260508170026 19 176 4.8 8.0 0.00 0.25 0.00 58 990.0
20260508165013 19 118 4.8 9.7 0.00 0.25 0.00 58 990.1
20260508164023 18 168 4.8 8.0 0.00 0.25 0.00 59 990.3
20260508163011 19 136 3.2 6.4 0.00 0.25 0.00 57 990.7
20260508162040 18 147 4.8 8.0 0.00 0.25 0.00 56 990.5
20260508161008 18 167 3.2 6.4 0.00 0.25 0.00 58 990.6
20260508160016 19 94 3.2 6.4 0.00 0.25 0.00 56 990.7
20260508155025 18 83 4.8 6.4 0.00 0.25 0.00 57 990.8
20260508154036 18 172 4.8 6.4 0.00 0.25 0.00 58 990.9
20260508153043 17 118 1.6 4.8 0.00 0.25 0.00 61 991.1
20260508152012 17 147 3.2 6.4 0.00 0.25 0.00 61 991.1
20260508151040 17 94 4.8 8.0 0.00 0.25 0.00 58 991.1